EW0121 Weather Reports


time (UTC)temp
F
wind
direction
speed
knots
gust
knots
rain 1hr
in
rain 24hr
in
rain mn
in
humidity
%
barometer
mb
20260506211522 47 98 0.0 2.6 0.00 0.00 0.00 68 1015.5
20260506210031 47 92 0.0 1.7 0.00 0.00 0.00 68 1015.5
20260506204527 47 92 0.0 1.7 0.00 0.00 0.00 68 1015.3
20260506203014 47 66 0.0 1.7 0.00 0.00 0.00 68 1015.3
20260506201520 48 59 0.0 1.7 0.00 0.00 0.00 67 1015.1
20260506200023 49 65 0.0 2.6 0.00 0.00 0.00 66 1015.0
20260506194526 50 49 0.0 1.7 0.00 0.00 0.00 64 1014.9
20260506193027 51 40 0.0 2.6 0.00 0.00 0.00 61 1014.9
20260506191518 52 42 0.9 2.6 0.00 0.00 0.00 57 1014.9
20260506190004 53 14 0.9 1.7 0.00 0.00 0.00 55 1014.7
20260506184506 54 5 0.9 4.3 0.00 0.00 0.00 54 1014.6
20260506183008 55 11 0.9 2.6 0.00 0.00 0.00 53 1014.6
20260506181511 57 28 1.7 7.0 0.00 0.00 0.00 45 1014.4
20260506180025 57 28 0.9 3.5 0.00 0.00 0.00 46 1014.3
20260506174504 57 349 0.0 4.3 0.00 0.00 0.00 47 1014.2
20260506173013 57 343 0.9 2.6 0.00 0.00 0.00 44 1014.3
20260506171514 58 38 0.9 5.2 0.00 0.00 0.00 45 1014.2
20260506170013 59 17 1.7 5.2 0.00 0.00 0.00 45 1014.1
20260506164520 60 309 4.3 9.6 0.00 0.00 0.00 43 1014.0
20260506163004 60 352 0.9 8.7 0.00 0.00 0.00 44 1014.0
20260506161511 59 310 2.6 7.0 0.00 0.00 0.00 43 1014.0
20260506160012 60 18 1.7 7.0 0.00 0.00 0.00 43 1013.9
20260506154515 61 323 1.7 7.8 0.00 0.00 0.00 42 1014.0
20260506153020 63 346 2.6 7.0 0.00 0.00 0.00 41 1014.1
20260506151506 63 316 2.6 8.7 0.00 0.00 0.00 39 1014.2
20260506150012 59 11 1.7 12.2 0.00 0.00 0.00 43 1014.3
20260506144513 64 11 0.9 6.1 0.00 0.00 0.00 39 1014.4
20260506143025 64 346 1.7 7.8 0.00 0.00 0.00 42 1014.5
20260506141524 64 352 1.7 7.0 0.00 0.00 0.00 42 1014.5
20260506140008 65 41 2.6 10.4 0.00 0.00 0.00 40 1014.6
20260506134513 64 13 5.2 9.6 0.00 0.00 0.00 41 1014.6
20260506133018 60 319 1.7 6.1 0.00 0.00 0.00 45 1014.6
20260506131530 63 360 1.7 7.8 0.00 0.00 0.00 44 1014.6
20260506130024 62 38 1.7 10.4 0.00 0.00 0.00 45 1014.7
20260506124511 61 11 1.7 9.6 0.00 0.00 0.00 44 1014.7
20260506123016 61 13 1.7 11.3 0.00 0.00 0.00 45 1014.7
20260506121520 60 79 3.5 8.7 0.00 0.00 0.00 46 1014.7
20260506120023 59 74 3.5 8.7 0.00 0.00 0.00 46 1014.8
20260506114533 59 352 3.5 10.4 0.00 0.00 0.00 46 1015.0
20260506113014 59 315 4.3 8.7 0.00 0.00 0.00 49 1015.0
20260506111521 59 336 0.9 5.2 0.00 0.00 0.00 50 1015.1
20260506110024 58 352 2.6 8.7 0.00 0.00 0.00 50 1015.1
20260506104528 57 11 0.9 4.3 0.00 0.00 0.00 52 1015.1
20260506103033 58 261 0.9 7.0 0.00 0.00 0.00 53 1015.2
20260506101527 57 12 1.7 7.0 0.00 0.00 0.00 54 1015.2
20260506100004 55 55 0.9 5.2 0.00 0.00 0.00 58 1015.2
20260506094512 55 352 1.7 6.1 0.00 0.00 0.00 57 1015.1
20260506093014 54 23 2.6 9.6 0.00 0.00 0.00 61 1015.1
20260506091514 55 44 0.9 4.3 0.00 0.00 0.00 60 1015.0
20260506090019 54 38 1.7 7.8 0.00 0.00 0.00 60 1015.0
20260506084504 53 27 0.9 3.5 0.00 0.00 0.00 62 1014.9
20260506083006 52 13 3.5 9.6 0.00 0.00 0.00 63 1014.9
20260506081510 51 352 2.6 8.7 0.00 0.00 0.00 65 1015.0
20260506073005 49 15 1.7 4.3 0.00 0.00 0.00 72 1014.9
20260506071509 48 20 1.7 4.3 0.00 0.00 0.00 72 1014.8
20260506061508 46 23 1.7 4.3 0.00 0.00 0.00 76 1014.4
20260506044540 46 360 0.9 4.3 0.00 0.00 0.00 77 1014.2
20260506043016 47 348 1.7 5.2 0.00 0.00 0.00 78 1014.1
20260506041524 47 360 0.9 7.8 0.00 0.00 0.00 78 1014.0
20260506040029 47 44 1.7 7.8 0.00 0.00 0.00 77 1013.9
20260506034536 47 53 0.9 4.3 0.00 0.00 0.00 77 1014.0
20260506033017 47 19 1.7 4.3 0.00 0.00 0.00 77 1014.1
20260506031521 47 352 0.9 3.5 0.00 0.00 0.00 76 1014.1
20260506030024 47 37 0.9 4.3 0.00 0.00 0.00 76 1014.1
20260506024528 48 352 0.9 7.8 0.00 0.00 0.00 76 1014.1
20260506023014 48 48 1.7 7.0 0.00 0.00 0.00 76 1014.1
20260506021521 48 11 1.7 6.1 0.00 0.00 0.00 77 1014.1
20260506020022 49 18 0.9 4.3 0.00 0.00 0.00 78 1014.1
20260506014531 49 352 0.9 2.6 0.00 0.00 0.00 78 1014.1
20260506013027 49 328 0.9 4.3 0.00 0.00 0.00 77 1014.3
20260506011507 49 46 0.9 5.2 0.00 0.00 0.00 77 1014.3
20260506010007 49 23 0.9 2.6 0.00 0.00 0.00 77 1014.2
20260506004505 49 36 0.9 5.2 0.00 0.00 0.00 76 1014.2
20260506003004 50 53 0.9 3.5 0.00 0.00 0.00 76 1014.2
20260506001508 50 42 0.9 7.8 0.00 0.00 0.00 74 1014.2
20260506000005 50 17 0.9 3.5 0.00 0.00 0.00 74 1014.2
20260505234510 50 42 0.0 3.5 0.00 0.00 0.00 75 1014.1
20260505233010 50 59 1.7 4.3 0.00 0.00 0.00 74 1014.1
20260505231510 51 352 0.9 4.3 0.00 0.00 0.00 73 1014.2
20260505230012 50 303 1.7 8.7 0.00 0.00 0.00 73 1014.1
20260505224510 50 322 1.7 7.8 0.00 0.00 0.00 73 1014.0
20260505223010 51 360 3.5 7.0 0.00 0.00 0.00 72 1013.9
20260505221507 51 352 0.9 7.0 0.00 0.00 0.00 72 1014.0
20260505220020 51 16 1.7 8.7 0.00 0.00 0.00 71 1014.0
20260505214507 51 17 2.6 7.8 0.00 0.00 0.00 71 1014.2
20260505213008 51 352 1.7 7.8 0.00 0.00 0.00 71 1014.1